[[{"header":{"parameterUnit":"m.s-1","parameterCategory":2,"la1":30.2991,"la2":30.254,"lo1":-89.0895,"lo2":-89.0444,"dy":0.0017,"dx":0.0017,"nx":28,"ny":28,"refTime":"2025-05-31T09:00:00:Z","depth":"0","parameterNumber":2,"parameterNumberName":"U-component_of_CURRENTS"},"data":[0,0,0,0,0,0,0,0,0,0,0,0,0,0,0,0,0,0,0,0,0,0,0,0,0,0,0,0,0,0,0,0,0,0,0,0,0,0,0,0,0,0,0,0,0,0,0,0,0,0,0,0,0,0,0,0,0,0,0.2566,0.2567,0,0.2666,0.2667,0.2668,0.2716,0.2716,0.2716,0.2716,0.284,0.2843,0.2846,0,0,0,0,0,0,0,0,0,0,0,0,0,0.2461,0.2462,0.2566,0.2567,0.2568,0.2666,0.2667,0.2669,0.2716,0.2716,0.2716,0.2716,0.2839,0.2843,0.2847,0,0,0,0,0,0,0,0,0,0,0,0,0,0.2528,0.2463,0.2565,0.2604,0.2609,0.2666,0.2667,0.2669,0.2716,0.2716,0.2716,0.2716,0.2837,0.2842,0.2847,0.2878,0,0,0.2862,0.2864,0,0,0,0,0,0,0,0,0.2524,0.2532,0.2597,0.2602,0.2607,0.2679,0.2676,0.274,0.2716,0.2675,0.2716,0.2716,0.2788,0.2797,0.2815,0.2883,0.2889,0.2863,0.2866,0.2868,0.2869,0,0,0,0,0,0,0,0.2519,0.2528,0.2605,0.2599,0.2604,0.2632,0.2641,0.2688,0.2731,0.2679,0.2683,0.2694,0.2791,0.281,0.2819,0.289,0.2862,0.2867,0.287,0.2872,0.3004,0.3004,0,0,0,0,0,0,0.2506,0.2523,0.2602,0.2608,0.2565,0.2634,0.2644,0.2656,0.273,0.2741,0.2694,0.2696,0.2802,0.2813,0.2823,0.2869,0.2868,0.2872,0.2875,0.3003,0.3004,0.3004,0,0,0,0,0,0,0.2503,0.2512,0.2598,0.2568,0.2581,0.2635,0.2648,0.2658,0.2676,0.2741,0.2753,0.2702,0.2803,0.2816,0.2864,0.2874,0.2874,0.2879,0.3002,0.3003,0.3004,0.2957,0,0,0,0,0,0,0.2499,0.251,0.2515,0.2567,0.2582,0.2629,0.2649,0.2659,0.2683,0.2687,0.2753,0.2764,0.2804,0.2857,0.2869,0.288,0.2883,0.3002,0.3003,0.3004,0.2958,0.2956,0.2954,0,0,0,0,0,0.2495,0.2507,0.2515,0.2524,0.2587,0.2629,0.2639,0.2678,0.2683,0.2693,0.2736,0.2762,0.2872,0.2861,0.2876,0.2889,0.3001,0.3002,0.3004,0.2958,0.2956,0.2954,0,0,0,0,0,0,0.2464,0.2515,0.2524,0.2549,0.2582,0.2637,0.2654,0.2673,0.2714,0.2717,0.277,0.2785,0.283,0.2867,0.2853,0.293,0.2941,0.2945,0.2902,0.29,0.2899,0.2908,0.2887,0,0,0,0,0,0.2458,0.2483,0.2524,0.2545,0.2557,0.26,0.2622,0.2645,0.2688,0.2705,0.2749,0.2799,0.2848,0.2877,0.2923,0.2967,0.3017,0.2986,0.2984,0.2982,0.3,0.3055,0.306,0.3008,0.3008,0.3008,0,0,0.2456,0.2484,0.25,0.2541,0.2568,0.2597,0.2613,0.2643,0.2672,0.2713,0.2761,0.2793,0.2857,0.2904,0.2928,0.2936,0.3027,0.2984,0.2982,0.3002,0.3057,0.3062,0.3066,0.3009,0.3009,0.3009,0,0,0.2466,0.248,0.2505,0.2528,0.2565,0.2592,0.2595,0.2641,0.2664,0.2708,0.2744,0.2781,0.2856,0.2902,0.2936,0.2956,0.3011,0.2967,0.2974,0.3025,0.303,0.3034,0.3116,0.3129,0.297,0.297,0.297,0,0.2462,0.2495,0.2517,0.2541,0.2562,0.2586,0.261,0.2642,0.2698,0.2715,0.2718,0.2819,0.286,0.293,0.2937,0.2953,0.3002,0.2971,0.3022,0.3028,0.3033,0.3116,0.3131,0.2968,0.2968,0.2969,0.2969,0,0.2498,0.2514,0.2527,0.2567,0.2587,0.2611,0.2647,0.2666,0.2685,0.2717,0.277,0.2823,0.2883,0.2898,0.2929,0.2989,0.3019,0.3006,0.3022,0.3035,0.3123,0.3138,0.2965,0.2966,0.2967,0.2967,0,0,0.2522,0.2548,0.2552,0.2565,0.26,0.2624,0.2654,0.2694,0.2723,0.2757,0.2803,0.2867,0.2879,0.2921,0.2954,0.3004,0.3082,0.3023,0.3027,0.3099,0.3226,0.3274,0.3296,0.3072,0.3074,0.3075,0.3275,0,0.2546,0.2579,0.2591,0.2625,0.2644,0.2658,0.2692,0.2724,0.2752,0.28,0.284,0.29,0.2895,0.2928,0.2968,0.3054,0.3119,0.3031,0.321,0.3216,0.3251,0.3314,0.3204,0.3375,0.3291,0.3293,0.3295,0,0.259,0.2602,0.2627,0.2651,0.2662,0.2684,0.2725,0.2759,0.2812,0.2836,0.2872,0.2911,0.299,0.2981,0.3127,0.3069,0.3152,0.3216,0.3224,0.33,0.3293,0.3348,0.3407,0.3238,0.332,0.3318,0.3316,0,0.2609,0.2635,0.265,0.266,0.269,0.2701,0.2721,0.2764,0.2796,0.2861,0.2896,0.2968,0.3038,0.3115,0.3238,0.3186,0.342,0.3358,0.349,0.3495,0.3457,0.3455,0.3369,0.3482,0.3482,0.3481,0.3481,0,0.2641,0.2658,0.2656,0.2668,0.2691,0.2711,0.2744,0.2773,0.2827,0.2863,0.2914,0.2974,0.3076,0.3205,0.3279,0.3458,0.3454,0.3528,0.3556,0.344,0.3434,0.3331,0.3263,0.3489,0.3487,0.3486,0.3484,0,0.2665,0.2666,0.2683,0.2695,0.2698,0.2714,0.2743,0.277,0.2826,0.2878,0.2904,0.302,0.3185,0.3322,0.3503,0.3544,0.3591,0.3758,0.3639,0.3649,0.3562,0.3498,0.3442,0.3347,0.3907,0.3909,0.3911,0,0.2682,0.269,0.2689,0.2685,0.2685,0.2703,0.2714,0.2761,0.2785,0.2894,0.2923,0.3113,0.3235,0.3547,0.3685,0.3881,0.371,0.3875,0.3746,0.3577,0.3525,0.3362,0.3271,0.3684,0.3684,0.3684,0.3684,0,0.2701,0.2695,0.2695,0.2685,0.2684,0.2687,0.2703,0.2727,0.2782,0.2859,0.2981,0.3099,0.3392,0.3549,0.3821,0.3903,0.365,0.3884,0.3716,0.3372,0.318,0.3095,0.3553,0.3684,0.3684,0.3684,0.3684,0.3684,0.2703,0.27,0.2687,0.2681,0.2675,0.2668,0.2664,0.2701,0.2765,0.285,0.2985,0.3144,0.335,0.3717,0.3779,0.3755,0.3721,0.3628,0.3582,0.3445,0.328,0.3774,0.3923,0.3924,0.3925,0.3926,0.3927,0,0.2693,0.2687,0.2682,0.2662,0.2647,0.2651,0.2653,0.2645,0.2704,0.2825,0.2958,0.3158,0.331,0.3431,0.352,0.3433,0.3272,0.3316,0.2995,0.2936,0.3385,0.3296,0.3303,0.3303,0.3304,0.3304,0.3304,0.3304,0.2682,0.267,0.2668,0.2637,0.2622,0.2579,0.2573,0.2575,0.2635,0.2721,0.2812,0.2938,0.3076,0.3173,0.3085,0.3038,0.2751,0.2699,0.2649,0.2884,0.2905,0.2924,0.2817,0.2725,0.2724,0.2063,0.2058,0.2054]},{"header":{"parameterUnit":"m.s-1","parameterCategory":2,"la1":30.2991,"la2":30.254,"lo1":-89.0895,"lo2":-89.0444,"dy":0.0017,"dx":0.0017,"nx":28,"ny":28,"refTime":"2025-05-31T09:00:00:Z","depth":"0","parameterNumber":3,"parameterNumberName":"V-component_of_CURRENTS"},"data":[0,0,0,0,0,0,0,0,0,0,0,0,0,0,0,0,0,0,0,0,0,0,0,0,0,0,0,0,0,0,0,0,0,0,0,0,0,0,0,0,0,0,0,0,0,0,0,0,0,0,0,0,0,0,0,0,0,0,-0.0302,-0.0304,0,-0.0458,-0.046,-0.0462,-0.0541,-0.0541,-0.0541,-0.0541,-0.0669,-0.0673,-0.0676,0,0,0,0,0,0,0,0,0,0,0,0,0,-0.0083,-0.0086,-0.0302,-0.0304,-0.0306,-0.0458,-0.046,-0.0462,-0.0541,-0.0541,-0.0541,-0.0541,-0.0668,-0.0672,-0.0676,0,0,0,0,0,0,0,0,0,0,0,0,0,-0.0203,-0.0088,-0.0302,-0.0363,-0.037,-0.0457,-0.046,-0.0463,-0.0541,-0.0541,-0.0541,-0.0541,-0.0667,-0.0672,-0.0677,-0.0709,0,0,-0.0693,-0.0695,0,0,0,0,0,0,0,0,-0.0196,-0.0211,-0.0352,-0.0359,-0.0367,-0.0479,-0.043,-0.0544,-0.0541,-0.0476,-0.0541,-0.0541,-0.0603,-0.0613,-0.0644,-0.0715,-0.0721,-0.0693,-0.0696,-0.0698,-0.07,0,0,0,0,0,0,0,-0.0188,-0.0205,-0.0364,-0.0354,-0.0363,-0.0386,-0.0403,-0.0452,-0.0538,-0.0482,-0.0488,-0.0504,-0.0607,-0.0639,-0.0648,-0.0723,-0.0693,-0.0698,-0.0701,-0.0703,-0.0808,-0.0808,0,0,0,0,0,0,-0.0167,-0.0197,-0.0359,-0.0369,-0.0279,-0.039,-0.0409,-0.0444,-0.0538,-0.0553,-0.0504,-0.0507,-0.063,-0.0641,-0.0652,-0.0668,-0.0698,-0.0703,-0.0706,-0.0809,-0.0808,-0.0808,0,0,0,0,0,0,-0.0162,-0.0181,-0.0353,-0.0285,-0.0308,-0.0394,-0.0432,-0.0447,-0.0475,-0.0555,-0.0569,-0.0516,-0.0631,-0.0645,-0.0689,-0.0675,-0.0706,-0.071,-0.0809,-0.0809,-0.0808,-0.0718,0,0,0,0,0,0,-0.0156,-0.0179,-0.0188,-0.0284,-0.0311,-0.0389,-0.0432,-0.045,-0.0485,-0.0491,-0.057,-0.0583,-0.0632,-0.0681,-0.0694,-0.0682,-0.0714,-0.0809,-0.0809,-0.0808,-0.0721,-0.0714,-0.0708,0,0,0,0,0,-0.0147,-0.016,-0.0188,-0.0207,-0.0325,-0.0389,-0.0404,-0.0465,-0.0485,-0.0492,-0.0548,-0.058,-0.0687,-0.0686,-0.0701,-0.069,-0.081,-0.0809,-0.0808,-0.0724,-0.0716,-0.0709,0,0,0,0,0,0,-0.0068,-0.0173,-0.0204,-0.0248,-0.0305,-0.0401,-0.0414,-0.0457,-0.0509,-0.0512,-0.0584,-0.06,-0.0632,-0.0675,-0.0672,-0.0719,-0.0751,-0.0753,-0.0681,-0.0674,-0.0668,-0.0633,-0.0719,0,0,0,0,0,-0.0055,-0.0094,-0.0187,-0.0218,-0.0243,-0.0325,-0.0356,-0.0399,-0.0462,-0.0486,-0.0544,-0.0599,-0.0644,-0.0669,-0.0717,-0.0746,-0.075,-0.0748,-0.0741,-0.0735,-0.0718,-0.072,-0.0711,-0.0806,-0.0806,-0.0806,0,0,-0.0034,-0.0094,-0.0116,-0.0202,-0.0253,-0.0283,-0.0344,-0.0385,-0.0405,-0.049,-0.0527,-0.0581,-0.0647,-0.0679,-0.0696,-0.0712,-0.0706,-0.0735,-0.0729,-0.0715,-0.0718,-0.0709,-0.07,-0.0806,-0.0806,-0.0806,0,0,-0.0004,-0.0061,-0.008,-0.0123,-0.0192,-0.0242,-0.0248,-0.0337,-0.0368,-0.0414,-0.0474,-0.0515,-0.0594,-0.0634,-0.0665,-0.0652,-0.0673,-0.067,-0.0611,-0.0612,-0.0604,-0.0596,-0.0562,-0.0553,-0.0666,-0.0666,-0.0666,0,0.003,-0.0017,-0.0089,-0.0112,-0.0136,-0.0216,-0.0227,-0.0272,-0.0362,-0.0374,-0.0408,-0.0506,-0.0568,-0.0594,-0.0597,-0.0635,-0.0628,-0.0632,-0.0601,-0.0594,-0.0588,-0.0555,-0.0546,-0.0661,-0.0662,-0.0662,-0.0663,0,0.0039,0.0011,0.0002,-0.0057,-0.0085,-0.0108,-0.0175,-0.0198,-0.0242,-0.029,-0.0326,-0.0412,-0.0464,-0.0494,-0.0547,-0.0539,-0.0542,-0.059,-0.0612,-0.0572,-0.0541,-0.0533,-0.0655,-0.0657,-0.0658,-0.0659,0,0,0.0079,0.002,0.0017,0.0009,-0.0057,-0.008,-0.0092,-0.013,-0.0126,-0.0202,-0.0196,-0.0291,-0.0333,-0.037,-0.0439,-0.0451,-0.0409,-0.0497,-0.0499,-0.0447,-0.0376,-0.0349,-0.0338,-0.0449,-0.0448,-0.0447,-0.0361,0,0.0107,0.0095,0.0054,0.0054,0.0042,-0.0008,-0.0011,-0.0046,-0.0082,-0.0093,-0.0165,-0.0194,-0.0288,-0.0306,-0.0333,-0.0397,-0.0387,-0.0425,-0.0437,-0.0436,-0.0405,-0.0328,-0.0296,-0.0215,-0.0353,-0.0352,-0.0351,0,0.012,0.0111,0.0123,0.0108,0.0102,0.01,0.01,0.0085,0.0059,0.0034,0.0002,-0.0057,-0.0093,-0.0175,-0.023,-0.0249,-0.0295,-0.034,-0.0339,-0.0338,-0.0394,-0.0285,-0.0195,-0.0368,-0.0338,-0.0339,-0.034,0,0.0173,0.0155,0.0175,0.0166,0.0142,0.0157,0.0151,0.0132,0.0144,0.0128,0.0148,0.0078,0.0069,-0.0013,-0.0115,-0.0166,-0.015,-0.0237,-0.0242,-0.024,-0.0227,-0.0225,-0.0292,-0.0244,-0.0244,-0.0244,-0.0244,0,0.0202,0.0213,0.0207,0.0214,0.0253,0.0218,0.0263,0.0247,0.0261,0.0307,0.0222,0.0266,0.0109,0.0087,-0.0033,-0.0085,-0.0081,-0.0195,-0.021,-0.0193,-0.0189,-0.0353,-0.0459,-0.0241,-0.0241,-0.0242,-0.0243,0,0.0241,0.0235,0.0258,0.0264,0.0275,0.0304,0.0339,0.0375,0.0377,0.0445,0.0454,0.0433,0.0418,0.0283,0.0183,0.0051,-0.0093,-0.0047,0.0005,-0.0006,-0.0204,-0.0304,-0.0327,-0.038,-0.0041,-0.004,-0.0038,0,0.0254,0.0273,0.0307,0.0337,0.0344,0.0385,0.0424,0.0433,0.0481,0.0562,0.0615,0.0638,0.0691,0.0574,0.0359,0.021,0.0018,0.01,-0.0013,-0.0173,-0.0297,-0.0361,-0.0411,0.0052,0.0054,0.0055,0.0056,0,0.0287,0.0307,0.0332,0.0401,0.0451,0.0508,0.0567,0.0634,0.0673,0.0774,0.0927,0.1,0.0901,0.0799,0.0563,0.0406,-0.0004,0.0124,-0.0064,-0.0229,-0.0279,-0.0351,-0.0034,0.0069,0.0068,0.0067,0.0066,0.0066,0.0316,0.0352,0.04,0.0467,0.0535,0.0637,0.0719,0.082,0.0968,0.1165,0.1198,0.1384,0.1137,0.0851,0.0606,0.0139,0.0123,-0.0031,-0.0131,-0.0175,-0.0253,0.0117,0.0202,0.0201,0.0201,0.02,0.02,0,0.0348,0.0397,0.0462,0.0559,0.066,0.0679,0.082,0.0939,0.1169,0.1394,0.1584,0.1613,0.1298,0.0884,0.0272,-0.0064,-0.0213,-0.0273,-0.0393,-0.0429,-0.0113,-0.0142,-0.01,-0.01,-0.01,-0.0099,-0.0099,-0.0099,0.0369,0.0439,0.0481,0.0652,0.0735,0.0892,0.0994,0.1196,0.1384,0.1722,0.1898,0.1998,0.1631,0.0538,-0.0228,-0.0407,-0.0666,-0.0675,-0.0814,-0.0667,-0.0655,-0.0643,-0.0696,-0.0772,-0.0773,-0.1079,-0.1083,-0.1086]}],[{"header":{"parameterUnit":"m.s-1","parameterCategory":2,"la1":30.2991,"la2":30.254,"lo1":-89.0895,"lo2":-89.0444,"dy":0.0017,"dx":0.0017,"nx":28,"ny":28,"refTime":"2025-05-31T09:00:00:Z","depth":"2","parameterNumber":2,"parameterNumberName":"U-component_of_CURRENTS"},"data":[0,0,0,0,0,0,0,0,0,0,0,0,0,0,0,0,0,0,0,0,0,0,0,0,0,0,0,0,0,0,0,0,0,0,0,0,0,0,0,0,0,0,0,0,0,0,0,0,0,0,0,0,0,0,0,0,0,0,0.2503,0.2503,0,0.2419,0.2417,0.2415,0.2358,0.2359,0.2359,0.236,0.2207,0.2202,0.2197,0,0,0,0,0,0,0,0,0,0,0,0,0,0.226,0.2266,0.2503,0.2503,0.2503,0.2419,0.2417,0.2414,0.2358,0.2359,0.236,0.2361,0.2208,0.2203,0.2197,0,0,0,0,0,0,0,0,0,0,0,0,0,0.2279,0.2268,0.2503,0.2474,0.2471,0.2419,0.2417,0.2414,0.2358,0.2359,0.236,0.2361,0.221,0.2203,0.2196,0.2129,0,0,0.2174,0.2171,0,0,0,0,0,0,0,0,0.2278,0.2286,0.2478,0.2476,0.2473,0.2411,0.2275,0.2319,0.2357,0.2388,0.236,0.2362,0.2276,0.2263,0.2228,0.2122,0.2115,0.2173,0.2169,0.2166,0.2164,0,0,0,0,0,0,0,0.2277,0.2287,0.2457,0.2478,0.2476,0.2345,0.235,0.2281,0.2315,0.2385,0.2384,0.2394,0.2272,0.2235,0.2224,0.2113,0.2174,0.2167,0.2163,0.216,0.2045,0.2046,0,0,0,0,0,0,0.2332,0.2289,0.246,0.2455,0.239,0.2351,0.2356,0.2419,0.2318,0.2307,0.2393,0.2392,0.2247,0.2233,0.2219,0.2217,0.2166,0.2159,0.2155,0.2043,0.2045,0.2046,0,0,0,0,0,0,0.2328,0.235,0.2463,0.2375,0.2383,0.2358,0.2426,0.2418,0.2407,0.2327,0.2313,0.2398,0.2247,0.2229,0.2183,0.2208,0.2156,0.215,0.2042,0.2044,0.2046,0.2161,0,0,0,0,0,0,0.2322,0.235,0.2393,0.2382,0.2391,0.2452,0.2426,0.2416,0.2417,0.2414,0.2325,0.2311,0.2247,0.2195,0.2176,0.2197,0.2144,0.204,0.2043,0.2045,0.2156,0.2167,0.2176,0,0,0,0,0,0.2314,0.2375,0.2397,0.2416,0.2461,0.2454,0.2444,0.2416,0.2417,0.241,0.236,0.2315,0.2197,0.2189,0.2167,0.2187,0.2039,0.2042,0.2045,0.2151,0.2165,0.2176,0,0,0,0,0,0,0.2268,0.2377,0.2399,0.2487,0.2484,0.245,0.244,0.2435,0.2387,0.2389,0.2312,0.2293,0.2267,0.2211,0.2204,0.2164,0.2117,0.2116,0.2206,0.2217,0.2228,0.2271,0.2138,0,0,0,0,0,0.2293,0.2388,0.2424,0.2489,0.2493,0.2472,0.2463,0.2459,0.2427,0.2408,0.2357,0.2303,0.2254,0.2227,0.217,0.2134,0.2152,0.214,0.215,0.2159,0.2181,0.2223,0.224,0.2055,0.2055,0.2055,0,0,0.2296,0.2364,0.2417,0.2487,0.2475,0.2483,0.2466,0.2473,0.248,0.2397,0.2377,0.2331,0.2254,0.2222,0.2207,0.2182,0.223,0.2162,0.2171,0.2188,0.2228,0.2246,0.2262,0.2057,0.2057,0.2057,0,0,0.2322,0.2405,0.2474,0.2482,0.2508,0.2497,0.2517,0.2507,0.2501,0.2484,0.2436,0.2413,0.233,0.2288,0.2253,0.2284,0.2283,0.2275,0.2355,0.2395,0.2412,0.2426,0.2519,0.254,0.2279,0.2279,0.228,0,0.2301,0.2417,0.2473,0.2507,0.2513,0.2518,0.2534,0.2527,0.2507,0.2506,0.2498,0.2426,0.2361,0.2335,0.2356,0.2307,0.2359,0.2313,0.2412,0.2426,0.2439,0.253,0.2552,0.2285,0.2285,0.2284,0.2283,0,0.2383,0.2437,0.246,0.2534,0.2539,0.2555,0.2568,0.2573,0.2579,0.2577,0.2577,0.2513,0.2477,0.2459,0.2414,0.2468,0.2489,0.2424,0.2388,0.2465,0.2556,0.2577,0.2294,0.2292,0.229,0.2288,0,0,0.2424,0.2503,0.251,0.252,0.2558,0.2566,0.2587,0.2602,0.2628,0.2628,0.2658,0.2605,0.2611,0.2576,0.2534,0.2573,0.2713,0.256,0.2559,0.2668,0.2874,0.2841,0.2861,0.2682,0.2685,0.2688,0.2919,0,0.245,0.2505,0.2554,0.2575,0.2583,0.2597,0.2617,0.2637,0.2652,0.2682,0.2671,0.2674,0.2645,0.2646,0.2689,0.269,0.2769,0.266,0.277,0.2775,0.2746,0.2882,0.2516,0.2687,0.294,0.2943,0.2946,0,0.2519,0.2541,0.2567,0.2588,0.2599,0.2622,0.2655,0.2677,0.272,0.2738,0.277,0.2772,0.2828,0.2786,0.2903,0.2849,0.2896,0.291,0.2917,0.2858,0.2779,0.2639,0.2715,0.2981,0.2978,0.2975,0.2973,0,0.2508,0.255,0.2567,0.2576,0.2608,0.2629,0.2653,0.2695,0.272,0.2785,0.2821,0.2886,0.2927,0.2996,0.3057,0.2998,0.321,0.3104,0.3134,0.3134,0.2827,0.2794,0.3221,0.322,0.322,0.3219,0.3218,0,0.2512,0.2525,0.2568,0.2571,0.2606,0.2636,0.2681,0.2713,0.2773,0.2807,0.2862,0.2911,0.2988,0.31,0.314,0.3244,0.3286,0.3204,0.3198,0.2861,0.283,0.3058,0.3036,0.3228,0.3226,0.3224,0.3223,0,0.2476,0.251,0.2531,0.2575,0.2597,0.2623,0.2688,0.2718,0.2786,0.2837,0.2865,0.298,0.3116,0.322,0.3347,0.3345,0.3427,0.3451,0.3094,0.304,0.331,0.3291,0.3503,0.3504,0.3505,0.3505,0.3506,0,0.2451,0.2458,0.2524,0.2547,0.2569,0.2615,0.2646,0.2713,0.2744,0.2858,0.2884,0.3047,0.312,0.3351,0.3325,0.3429,0.3519,0.3218,0.3004,0.3371,0.3343,0.3323,0.3304,0.2666,0.266,0.2655,0.2651,0,0.2377,0.2422,0.2438,0.2495,0.2537,0.2576,0.2628,0.2651,0.2724,0.2787,0.2875,0.2947,0.3082,0.301,0.3165,0.3157,0.3161,0.3117,0.3594,0.265,0.2599,0.2566,0.2571,0.2604,0.2609,0.2612,0.2615,0.2617,0.2318,0.2325,0.2366,0.2412,0.2475,0.2511,0.2498,0.256,0.2604,0.2576,0.2728,0.2707,0.2743,0.2738,0.2735,0.2726,0.2917,0.2805,0.2812,0.2828,0.2688,0.2641,0.2632,0.2636,0.264,0.2644,0.2647,0,0.22,0.2232,0.2272,0.2312,0.233,0.2423,0.2455,0.2393,0.2396,0.2378,0.238,0.2149,0.2156,0.2252,0.2112,0.2174,0.2057,0.2152,0.1943,0.1991,0.2033,0.1844,0.1569,0.1567,0.1564,0.1562,0,0,0.2124,0.2109,0.2132,0.2127,0.219,0.2169,0.2169,0.2116,0.2079,0.1883,0.1799,0.1882,0.2086,0.1746,0.1742,0.164,0.179,0.1572,0.2419,0.221,0.2249,0.2385,0.2148,0,0,0,0,0]},{"header":{"parameterUnit":"m.s-1","parameterCategory":2,"la1":30.2991,"la2":30.254,"lo1":-89.0895,"lo2":-89.0444,"dy":0.0017,"dx":0.0017,"nx":28,"ny":28,"refTime":"2025-05-31T09:00:00:Z","depth":"2","parameterNumber":3,"parameterNumberName":"V-component_of_CURRENTS"},"data":[0,0,0,0,0,0,0,0,0,0,0,0,0,0,0,0,0,0,0,0,0,0,0,0,0,0,0,0,0,0,0,0,0,0,0,0,0,0,0,0,0,0,0,0,0,0,0,0,0,0,0,0,0,0,0,0,0,0,-0.0385,-0.0387,0,-0.0474,-0.0474,-0.0474,-0.0513,-0.0513,-0.0514,-0.0514,-0.0639,-0.0642,-0.0645,0,0,0,0,0,0,0,0,0,0,0,0,0,-0.0119,-0.0124,-0.0385,-0.0387,-0.0389,-0.0474,-0.0474,-0.0475,-0.0513,-0.0513,-0.0514,-0.0515,-0.0638,-0.0642,-0.0645,0,0,0,0,0,0,0,0,0,0,0,0,0,-0.0217,-0.0126,-0.0385,-0.0423,-0.0428,-0.0473,-0.0474,-0.0475,-0.0513,-0.0513,-0.0514,-0.0515,-0.0637,-0.0641,-0.0645,-0.0656,0,0,-0.0658,-0.066,0,0,0,0,0,0,0,0,-0.0212,-0.0226,-0.0416,-0.0421,-0.0427,-0.049,-0.0427,-0.054,-0.0512,-0.0473,-0.0514,-0.0515,-0.0597,-0.0604,-0.0608,-0.0661,-0.0667,-0.0659,-0.0661,-0.0663,-0.0664,0,0,0,0,0,0,0,-0.0205,-0.0222,-0.0413,-0.0418,-0.0424,-0.0392,-0.0407,-0.0447,-0.0524,-0.0476,-0.0481,-0.0502,-0.0599,-0.0604,-0.0612,-0.0669,-0.0659,-0.0662,-0.0665,-0.0667,-0.0775,-0.0776,0,0,0,0,0,0,-0.0216,-0.0217,-0.041,-0.0416,-0.0327,-0.0398,-0.0414,-0.0462,-0.0523,-0.0535,-0.0502,-0.0504,-0.0596,-0.0607,-0.0616,-0.066,-0.0663,-0.0667,-0.067,-0.0775,-0.0775,-0.0776,0,0,0,0,0,0,-0.021,-0.0234,-0.0407,-0.0322,-0.0343,-0.0403,-0.0456,-0.0464,-0.0484,-0.0543,-0.0555,-0.0516,-0.0597,-0.061,-0.0656,-0.0665,-0.0669,-0.0673,-0.0775,-0.0775,-0.0776,-0.0731,0,0,0,0,0,0,-0.0203,-0.0231,-0.0251,-0.0324,-0.0348,-0.0434,-0.0456,-0.0465,-0.0499,-0.0503,-0.0559,-0.0571,-0.0599,-0.0649,-0.066,-0.0671,-0.0676,-0.0774,-0.0775,-0.0775,-0.0732,-0.073,-0.0728,0,0,0,0,0,-0.0193,-0.0221,-0.0252,-0.0274,-0.0381,-0.0435,-0.0443,-0.0481,-0.0499,-0.0502,-0.0542,-0.057,-0.0661,-0.0653,-0.0666,-0.0677,-0.0774,-0.0775,-0.0775,-0.0733,-0.073,-0.0728,0,0,0,0,0,0,-0.0116,-0.023,-0.0265,-0.0328,-0.0379,-0.0444,-0.0448,-0.0485,-0.0517,-0.052,-0.0574,-0.0588,-0.063,-0.0661,-0.065,-0.0711,-0.0723,-0.0726,-0.0686,-0.0684,-0.0682,-0.0651,-0.068,0,0,0,0,0,-0.0112,-0.0162,-0.0257,-0.0302,-0.0327,-0.0388,-0.041,-0.0445,-0.0494,-0.0508,-0.0556,-0.0601,-0.0639,-0.0667,-0.0702,-0.0738,-0.0737,-0.0755,-0.0753,-0.0751,-0.0734,-0.0744,-0.0741,-0.0778,-0.0778,-0.0778,0,0,-0.0097,-0.0163,-0.0193,-0.0288,-0.0324,-0.0354,-0.0401,-0.0439,-0.0462,-0.0518,-0.0553,-0.0596,-0.0647,-0.0681,-0.0703,-0.0711,-0.0737,-0.0752,-0.0749,-0.0734,-0.0744,-0.074,-0.0737,-0.0779,-0.0779,-0.0779,0,0,-0.0077,-0.0148,-0.0175,-0.0215,-0.0283,-0.0323,-0.0339,-0.0414,-0.044,-0.0486,-0.0528,-0.0572,-0.064,-0.0671,-0.0697,-0.0707,-0.0723,-0.0731,-0.07,-0.071,-0.0707,-0.0704,-0.0678,-0.0673,-0.0733,-0.0733,-0.0733,0,-0.0049,-0.0112,-0.0183,-0.0208,-0.0233,-0.0311,-0.0326,-0.0365,-0.0445,-0.0458,-0.0491,-0.0577,-0.0629,-0.0662,-0.0671,-0.0701,-0.0698,-0.0704,-0.0705,-0.0702,-0.07,-0.0675,-0.067,-0.0731,-0.0731,-0.0732,-0.0732,0,-0.0051,-0.0091,-0.0102,-0.0168,-0.0195,-0.0223,-0.0292,-0.0318,-0.0366,-0.0411,-0.0459,-0.0528,-0.0567,-0.061,-0.0648,-0.0664,-0.0662,-0.0696,-0.0704,-0.0693,-0.0668,-0.0663,-0.0728,-0.0729,-0.0729,-0.073,0,0,-0.0035,-0.0093,-0.0097,-0.0107,-0.0177,-0.0201,-0.0223,-0.0269,-0.0267,-0.0357,-0.0354,-0.0456,-0.0488,-0.0518,-0.0578,-0.0613,-0.0601,-0.0648,-0.0649,-0.0608,-0.0594,-0.0587,-0.0582,-0.0638,-0.0638,-0.0637,-0.0576,0,-0.0017,-0.0035,-0.0073,-0.0082,-0.01,-0.0147,-0.0155,-0.0198,-0.0236,-0.0248,-0.0334,-0.0357,-0.0455,-0.0463,-0.0514,-0.0569,-0.059,-0.0612,-0.0623,-0.0622,-0.0607,-0.0577,-0.0561,-0.0505,-0.0571,-0.0571,-0.057,0,-0.0021,-0.0032,-0.0027,-0.0038,-0.0045,-0.0046,-0.0048,-0.0066,-0.0098,-0.0123,-0.0164,-0.0218,-0.027,-0.0354,-0.0437,-0.0446,-0.0508,-0.0568,-0.0567,-0.0572,-0.0608,-0.0534,-0.0495,-0.0563,-0.0563,-0.0564,-0.0564,0,0.0008,-0.0006,0.0009,-0.0001,-0.0021,0.0,-0.0001,-0.002,-0.0009,-0.0024,-0.0004,-0.0087,-0.0094,-0.0202,-0.0318,-0.0371,-0.0394,-0.0475,-0.0526,-0.0525,-0.0517,-0.0516,-0.0525,-0.0525,-0.0525,-0.0525,-0.0525,0,0.0013,0.0018,0.0036,0.0035,0.0081,0.0057,0.0109,0.0098,0.0117,0.0156,0.0076,0.0106,-0.006,-0.0099,-0.0239,-0.0337,-0.0319,-0.0497,-0.0509,-0.05,-0.0498,-0.0564,-0.0569,-0.0523,-0.0523,-0.0524,-0.0524,0,0.0017,0.0023,0.0042,0.0067,0.009,0.0124,0.0185,0.0224,0.0235,0.0299,0.0307,0.0276,0.0235,0.0086,-0.0049,-0.0204,-0.032,-0.0362,-0.032,-0.033,-0.0466,-0.047,-0.0418,-0.0418,-0.0417,-0.0417,-0.0416,0,0.0007,0.0023,0.0081,0.012,0.0138,0.0198,0.0248,0.0276,0.0327,0.0404,0.0447,0.0451,0.0455,0.0289,0.0047,-0.0145,-0.0219,-0.0286,-0.0412,-0.0438,-0.0455,-0.046,-0.0465,-0.037,-0.0369,-0.0369,-0.0368,0,-0.0002,0.0034,0.006,0.0145,0.0214,0.0289,0.0368,0.0431,0.0485,0.0568,0.0675,0.0703,0.0566,0.039,0.0129,-0.0032,-0.0262,-0.0281,-0.0293,-0.041,-0.0391,-0.0409,-0.0415,-0.0362,-0.0363,-0.0363,-0.0364,-0.0364,0.0002,0.0034,0.0088,0.0171,0.0253,0.0361,0.0437,0.0543,0.0663,0.082,0.0841,0.0906,0.0679,0.0368,0.0124,-0.016,-0.0193,-0.0342,-0.0345,-0.0348,-0.0363,-0.0346,-0.0309,-0.0309,-0.0309,-0.031,-0.031,0,0.0006,0.0045,0.0113,0.0208,0.0306,0.0352,0.05,0.0617,0.0785,0.0941,0.1064,0.0896,0.07,0.0448,0.0028,-0.0241,-0.0287,-0.0319,-0.0333,-0.0337,-0.0341,-0.0358,-0.0301,-0.0302,-0.0302,-0.0302,0,0,0.001,0.0069,0.0112,0.0241,0.0315,0.0464,0.0562,0.0762,0.0906,0.1092,0.1147,0.1177,0.0809,0.0515,0.0173,-0.006,-0.0141,-0.0108,-0.0093,-0.0074,-0.0074,-0.0336,-0.0364,0,0,0,0,0]}],[{"header":{"parameterUnit":"m.s-1","parameterCategory":2,"la1":30.2991,"la2":30.254,"lo1":-89.0895,"lo2":-89.0444,"dy":0.0017,"dx":0.0017,"nx":28,"ny":28,"refTime":"2025-05-31T09:00:00:Z","depth":"4","parameterNumber":2,"parameterNumberName":"U-component_of_CURRENTS"},"data":[0,0,0,0,0,0,0,0,0,0,0,0,0,0,0,0,0,0,0,0,0,0,0,0,0,0,0,0,0,0,0,0,0,0,0,0,0,0,0,0,0,0,0,0,0,0,0,0,0,0,0,0,0,0,0,0,0,0,0.0422,0.0422,0,0.0457,0.0458,0.0459,0.0523,0.0524,0.0525,0.0526,0.0746,0.0751,0.0756,0,0,0,0,0,0,0,0,0,0,0,0,0,0.0601,0.0596,0.0422,0.0422,0.0422,0.0457,0.0458,0.0459,0.0523,0.0524,0.0525,0.0526,0.0744,0.075,0.0756,0,0,0,0,0,0,0,0,0,0,0,0,0,0.0572,0.0595,0.0422,0.0455,0.0458,0.0457,0.0458,0.0459,0.0523,0.0524,0.0525,0.0527,0.0742,0.075,0.0757,0.078,0,0,0.0781,0.0784,0,0,0,0,0,0,0,0,0.0573,0.0566,0.045,0.0453,0.0456,0.0483,0.0601,0.0574,0.0523,0.0503,0.0526,0.0527,0.0671,0.0685,0.0693,0.079,0.08,0.0781,0.0786,0.0789,0.0791,0,0,0,0,0,0,0,0.0575,0.0566,0.0441,0.045,0.0453,0.0533,0.0529,0.0597,0.0587,0.0505,0.0509,0.0505,0.0675,0.0685,0.0699,0.0803,0.0781,0.0788,0.0793,0.0796,0.1093,0.1097,0,0,0,0,0,0,0.0549,0.0566,0.044,0.0441,0.0514,0.0527,0.0523,0.0477,0.0582,0.0597,0.0504,0.0507,0.0671,0.069,0.0707,0.0872,0.0789,0.0796,0.0801,0.109,0.1094,0.1098,0,0,0,0,0,0,0.0552,0.0535,0.0438,0.0505,0.0497,0.0521,0.047,0.0477,0.0522,0.0578,0.0598,0.0545,0.0673,0.0696,0.0744,0.0876,0.08,0.0807,0.1086,0.1091,0.1096,0.1119,0,0,0,0,0,0,0.0556,0.0535,0.0496,0.05,0.0492,0.0445,0.0468,0.0477,0.0513,0.052,0.062,0.0639,0.0676,0.0732,0.0751,0.0886,0.0813,0.1082,0.1089,0.1094,0.1114,0.1124,0.1132,0,0,0,0,0,0.0561,0.0495,0.0492,0.0478,0.0433,0.0444,0.0449,0.0476,0.0514,0.0526,0.0564,0.0638,0.0791,0.0736,0.076,0.09,0.1079,0.1087,0.1094,0.111,0.1122,0.1132,0,0,0,0,0,0,0.057,0.0495,0.0493,0.0411,0.0432,0.0454,0.0456,0.0495,0.0536,0.0558,0.0622,0.0641,0.0743,0.0804,0.0744,0.1008,0.0974,0.0986,0.0978,0.099,0.0999,0.1027,0.0819,0,0,0,0,0,0.0544,0.0472,0.0455,0.0406,0.0405,0.0445,0.0456,0.0489,0.0522,0.0545,0.0622,0.0715,0.0789,0.0864,0.0921,0.1046,0.105,0.1172,0.1182,0.1189,0.1229,0.1284,0.13,0.1122,0.1122,0.1122,0,0,0.0548,0.0491,0.046,0.0404,0.0422,0.0446,0.0457,0.0486,0.0543,0.0565,0.067,0.0723,0.0813,0.0931,0.0997,0.1008,0.1232,0.1198,0.1204,0.1241,0.1293,0.131,0.1325,0.1127,0.1126,0.1126,0,0,0.0531,0.0461,0.0411,0.0427,0.0436,0.0457,0.0475,0.0527,0.0576,0.067,0.0698,0.0782,0.0956,0.101,0.107,0.1169,0.1242,0.1272,0.139,0.1441,0.1455,0.1468,0.1434,0.1444,0.1322,0.1322,0.1322,0,0.0543,0.047,0.0417,0.041,0.0431,0.0472,0.0497,0.055,0.063,0.0692,0.0721,0.0953,0.0992,0.1137,0.1187,0.1193,0.1228,0.1328,0.1449,0.1463,0.1476,0.1438,0.1449,0.1324,0.1324,0.1323,0.1323,0,0.0493,0.0486,0.0474,0.0461,0.0476,0.051,0.0562,0.0646,0.074,0.0813,0.0982,0.1032,0.1202,0.1245,0.126,0.1423,0.1411,0.1407,0.1407,0.1494,0.1449,0.1459,0.1327,0.1326,0.1325,0.1325,0,0,0.0423,0.043,0.0442,0.0476,0.0513,0.0529,0.0635,0.073,0.0832,0.098,0.1134,0.1267,0.1357,0.1429,0.1479,0.1543,0.1605,0.1567,0.1569,0.1509,0.1704,0.155,0.1545,0.1662,0.1666,0.1669,0.161,0,0.0426,0.042,0.0424,0.0506,0.0525,0.0614,0.0723,0.0832,0.0931,0.1092,0.1225,0.1361,0.1415,0.1514,0.1607,0.1579,0.1652,0.162,0.1654,0.1653,0.1486,0.1559,0.1681,0.1618,0.162,0.1622,0.1623,0,0.0382,0.0387,0.0431,0.0558,0.0578,0.0669,0.0827,0.0926,0.1133,0.1229,0.1425,0.1508,0.1651,0.1674,0.1768,0.1772,0.1791,0.1761,0.1758,0.163,0.1522,0.1534,0.1641,0.164,0.1639,0.1637,0.1636,0,0.0342,0.041,0.0443,0.0479,0.0615,0.0726,0.0842,0.1013,0.1098,0.132,0.1403,0.1605,0.1704,0.1788,0.1774,0.1811,0.1816,0.1824,0.1698,0.1682,0.1822,0.181,0.1929,0.1929,0.1929,0.193,0.193,0,0.033,0.0376,0.0462,0.0507,0.0621,0.0743,0.0886,0.1042,0.1241,0.1333,0.1506,0.1584,0.1758,0.1783,0.1799,0.1752,0.1843,0.1733,0.1685,0.1823,0.1813,0.1824,0.1812,0.1927,0.1928,0.1928,0.1929,0,0.0294,0.0343,0.0399,0.0553,0.0614,0.0713,0.0905,0.0995,0.12,0.1325,0.1405,0.1588,0.1626,0.1688,0.1736,0.1724,0.1684,0.1655,0.1732,0.1685,0.1515,0.1506,0.1532,0.1527,0.1522,0.1518,0.1515,0,0.0271,0.0296,0.0398,0.0429,0.0521,0.0659,0.0757,0.0982,0.1039,0.1274,0.132,0.145,0.1543,0.1461,0.1555,0.1546,0.1562,0.1515,0.162,0.1537,0.1489,0.1487,0.1484,0.1508,0.1507,0.1506,0.1505,0,0.024,0.0275,0.0318,0.0368,0.0461,0.0502,0.0666,0.0709,0.0948,0.1098,0.1212,0.1292,0.1335,0.1388,0.1384,0.1385,0.1524,0.147,0.1482,0.158,0.1508,0.1464,0.1467,0.1489,0.1491,0.1493,0.1494,0,0.0215,0.0214,0.0263,0.0307,0.0359,0.0381,0.0465,0.0574,0.0694,0.0988,0.0992,0.115,0.1298,0.1298,0.1269,0.1273,0.1313,0.1292,0.1315,0.1333,0.1304,0.1186,0.1046,0,0,0,0,0,0.018,0.0172,0.0192,0.0239,0.0266,0.0304,0.0405,0.0487,0.0693,0.0743,0.09,0.0946,0.1041,0.1095,0.1072,0.1177,0.1283,0.114,0.1261,0.1403,0.1421,0.141,0,0,0,0,0,0,0.0154,0.0169,0.0168,0.0156,0.0167,0.0205,0.0258,0.0394,0.0429,0.0648,0.0684,0.0871,0.0939,0.105,0.1053,0.1071,0.1121,0.1244,0.1241,0.1393,0.1409,0.1423,0.1419,0,0,0,0,0]},{"header":{"parameterUnit":"m.s-1","parameterCategory":2,"la1":30.2991,"la2":30.254,"lo1":-89.0895,"lo2":-89.0444,"dy":0.0017,"dx":0.0017,"nx":28,"ny":28,"refTime":"2025-05-31T09:00:00:Z","depth":"4","parameterNumber":3,"parameterNumberName":"V-component_of_CURRENTS"},"data":[0,0,0,0,0,0,0,0,0,0,0,0,0,0,0,0,0,0,0,0,0,0,0,0,0,0,0,0,0,0,0,0,0,0,0,0,0,0,0,0,0,0,0,0,0,0,0,0,0,0,0,0,0,0,0,0,0,0,0.0516,0.0516,0,0.053,0.0531,0.0531,0.055,0.0551,0.0551,0.0551,0.0584,0.0585,0.0585,0,0,0,0,0,0,0,0,0,0,0,0,0,0.0376,0.0379,0.0516,0.0516,0.0516,0.053,0.0531,0.0531,0.055,0.0551,0.0551,0.0551,0.0584,0.0585,0.0585,0,0,0,0,0,0,0,0,0,0,0,0,0,0.0419,0.0381,0.0516,0.0527,0.0528,0.053,0.0531,0.0531,0.055,0.0551,0.0551,0.0552,0.0584,0.0584,0.0585,0.0583,0,0,0.0588,0.0589,0,0,0,0,0,0,0,0,0.0417,0.0424,0.0525,0.0526,0.0528,0.0539,0.0493,0.0549,0.055,0.0542,0.0551,0.0552,0.057,0.0572,0.0574,0.0584,0.0586,0.0588,0.0589,0.0589,0.0589,0,0,0,0,0,0,0,0.0414,0.0423,0.0522,0.0525,0.0527,0.0487,0.0495,0.0503,0.0554,0.0543,0.0544,0.0545,0.0571,0.0573,0.0575,0.0586,0.0588,0.0589,0.059,0.059,0.0595,0.0594,0,0,0,0,0,0,0.0418,0.0421,0.0522,0.0522,0.0471,0.049,0.0499,0.0535,0.0554,0.0557,0.0545,0.0546,0.0571,0.0574,0.0576,0.0598,0.0589,0.059,0.0591,0.0595,0.0595,0.0594,0,0,0,0,0,0,0.0416,0.0429,0.0521,0.0469,0.0478,0.0493,0.0533,0.0535,0.0558,0.0555,0.0558,0.0568,0.0572,0.0575,0.0577,0.0599,0.059,0.0591,0.0596,0.0595,0.0595,0.0626,0,0,0,0,0,0,0.0412,0.0429,0.0457,0.0471,0.0481,0.0533,0.0532,0.0535,0.0556,0.0559,0.0575,0.0577,0.0572,0.0575,0.0578,0.06,0.0592,0.0596,0.0596,0.0595,0.0626,0.0627,0.0628,0,0,0,0,0,0.0408,0.044,0.046,0.0471,0.0522,0.0533,0.0535,0.0544,0.0557,0.0568,0.0564,0.0578,0.0572,0.0575,0.0578,0.0601,0.0597,0.0596,0.0595,0.0625,0.0626,0.0628,0,0,0,0,0,0,0.0379,0.0446,0.0467,0.0516,0.053,0.0536,0.0551,0.0558,0.0565,0.0574,0.0571,0.0572,0.058,0.058,0.0583,0.0596,0.0588,0.0588,0.061,0.0611,0.0612,0.0625,0.0593,0,0,0,0,0,0.0392,0.0456,0.0479,0.0523,0.0534,0.0549,0.0557,0.0565,0.057,0.0577,0.0579,0.058,0.0575,0.0585,0.0577,0.0592,0.0548,0.0606,0.0607,0.0608,0.0617,0.0543,0.0538,0.0591,0.0591,0.0591,0,0,0.0393,0.0439,0.0473,0.0524,0.0542,0.0553,0.0556,0.058,0.059,0.0578,0.0594,0.0583,0.0575,0.0579,0.0585,0.0588,0.0566,0.0607,0.0608,0.0617,0.0541,0.0536,0.0531,0.0591,0.0591,0.0591,0,0,0.042,0.0471,0.0526,0.0539,0.0574,0.0572,0.0584,0.0598,0.061,0.0624,0.0603,0.0594,0.0615,0.0589,0.0587,0.0588,0.0566,0.0604,0.0634,0.0561,0.0556,0.0551,0.0473,0.0461,0.0614,0.0614,0.0614,0,0.0411,0.0494,0.0532,0.0568,0.0571,0.0584,0.0598,0.0611,0.0618,0.0629,0.0639,0.0629,0.0616,0.0603,0.0602,0.0593,0.055,0.0634,0.0562,0.0557,0.0551,0.0472,0.0459,0.0615,0.0615,0.0615,0.0615,0,0.0465,0.0525,0.055,0.061,0.0606,0.0628,0.063,0.0656,0.0676,0.0675,0.0683,0.0653,0.0655,0.0643,0.0634,0.0596,0.0575,0.0564,0.0562,0.0548,0.0465,0.0451,0.0617,0.0617,0.0616,0.0616,0,0,0.0478,0.0571,0.0589,0.0617,0.063,0.0637,0.0661,0.0677,0.0707,0.0713,0.0732,0.0709,0.0703,0.0696,0.0668,0.0609,0.0521,0.0587,0.0583,0.0514,0.0359,0.0349,0.0332,0.0504,0.0502,0.0501,0.0311,0,0.0512,0.0585,0.0615,0.0657,0.0676,0.0689,0.0722,0.0734,0.0734,0.0754,0.0735,0.0735,0.072,0.0726,0.0667,0.0553,0.0488,0.0574,0.0379,0.0373,0.037,0.0316,0.0494,0.03,0.0296,0.0294,0.0292,0,0.0563,0.0603,0.0654,0.0709,0.0723,0.077,0.0803,0.0826,0.0844,0.0847,0.0834,0.0799,0.0733,0.0722,0.0536,0.0597,0.0493,0.04,0.039,0.0365,0.0337,0.0318,0.0264,0.0267,0.0269,0.027,0.0272,0,0.0563,0.0633,0.0678,0.069,0.0748,0.0823,0.0875,0.0895,0.0917,0.0908,0.0887,0.0819,0.0774,0.0646,0.0471,0.0502,0.0244,0.0254,0.0142,0.0139,0.0192,0.02,0.0118,0.0118,0.0118,0.0119,0.0119,0,0.0588,0.063,0.0722,0.0759,0.084,0.088,0.0957,0.1004,0.1042,0.1022,0.0958,0.0887,0.0751,0.059,0.0458,0.0245,0.0228,0.0132,0.0087,0.0207,0.0219,0.018,0.019,0.0112,0.0113,0.0115,0.0116,0,0.0585,0.0647,0.0702,0.0808,0.0861,0.0933,0.1048,0.1085,0.1113,0.1077,0.1075,0.0935,0.0713,0.0542,0.0291,0.0208,0.0016,-0.0054,0.0068,0.0035,-0.0036,-0.0022,-0.0192,-0.0194,-0.0196,-0.0197,-0.0198,0,0.0593,0.063,0.0735,0.0785,0.0868,0.0973,0.1052,0.1141,0.1145,0.1064,0.1038,0.085,0.0714,0.0344,0.019,-0.0067,-0.0087,-0.0175,-0.0076,-0.0042,-0.007,-0.0053,-0.0038,-0.0201,-0.0201,-0.0202,-0.0202,0,0.0587,0.064,0.069,0.0791,0.0902,0.0946,0.1073,0.1081,0.1115,0.1115,0.0959,0.0787,0.053,0.0306,0.0107,-0.0071,-0.0105,-0.0192,-0.0188,-0.0097,-0.0055,-0.0077,-0.006,-0.0208,-0.0207,-0.0207,-0.0206,0,0.0586,0.0614,0.0704,0.0782,0.0867,0.0913,0.0973,0.0992,0.1024,0.0975,0.0902,0.0662,0.0556,0.0296,0.0101,-0.0058,-0.0073,-0.0092,-0.0094,-0.0089,0.0022,0.0095,-0.0067,0,0,0,0,0,0.0562,0.0605,0.0682,0.0775,0.0836,0.0899,0.0963,0.1005,0.1023,0.0919,0.0936,0.0698,0.0414,0.0283,0.0118,0.0078,-0.01,-0.0117,-0.0122,-0.024,-0.0233,-0.0118,0,0,0,0,0,0,0.0557,0.0628,0.0672,0.0733,0.0784,0.0869,0.0898,0.0925,0.0875,0.0863,0.0705,0.068,0.0397,0.0506,0.0119,0.0072,0.0053,-0.023,-0.0233,-0.0244,-0.0238,-0.0232,-0.0112,0,0,0,0,0]}]]